sat.trackr.live / text

‹ back to catalog

STARLINK-34026

NORAD 63842 · 2025-093G

PAYLOAD ACTIVE UNKNOWN

§ Identity

Operator
Country
US
Launch date
2025-05-07
Launch site
AFETR
Launch vehicle
Mass (kg)
RCS (m²)

Purposes: comms

External: N2YO · Heavens-Above · Gunter

§ Orbital elements

Epoch: 2026-05-24T22:58:17.730624Z

Period
94.27 min
Inclination
42.9978°
Eccentricity
0.0001650
Mean motion
15.27582033 rev/d
Perigee alt
481.9 km
Apogee alt
484.2 km
Semi-major
6,861.2 km
B*
3.1249e-4
RAAN
7.4149°
Arg perigee
268.1147°
Mean anomaly
91.9515°
Rev number
5,941

§ Raw data

STARLINK-340261 63842U 25093G   26144.95714966  .00008347  00000+0  31249-3 0  99992 63842  42.9978   7.4149 0001650 268.1147  91.9515 15.27582033 59415

JSON: /api/v1/satellites/63842 · /tle

For live sub-satellite position, see the globe view (requires WebGL).

§ Visibility from observer

Set your observer location to see the next 7 days of passes ≥ 10°. The values pass through the URL so the page stays shareable.

No JS? Fill the form by hand. The geolocation button needs JavaScript.